Wind_Speed
8 8 8 8 7 7 7 7 6 6 7 6 7 7 7 7 7 7 7 8 9 9 10 10 10 10 11 11 12 12 13 13 13 13 14 16 16 17 18 19 20 20 21
9 8 8 8 8 8 8 8 8 7 7 7 8 8 7 7 8 8 9 9 10 10 11 11 11 11 12 13 13 14 14 14 15 16 16 17 18 19 20 20 20 21 21
9 8 8 9 9 10 9 9 9 9 8 8 9 8 8 8 9 9 9 10 10 11 11 11 12 12 13 13 14 14 15 15 16 17 18 18 19 19 20 21 21 22 22
9 9 9 10 10 10 10 10 10 10 9 10 10 10 10 10 10 10 11 11 11 11 12 12 12 13 13 13 14 15 15 16 17 18 19 19 19 20 21 22 23 24 24
9 9 10 10 11 11 10 10 11 11 11 11 11 11 11 11 11 12 12 12 12 12 13 13 13 13 14 14 15 16 16 17 18 19 19 20 21 22 22 23 23 24 25
11 11 11 12 12 12 11 11 11 12 12 12 12 12 12 12 13 13 13 13 13 14 14 14 13 14 15 16 16 17 17 18 19 20 20 21 22 23 23 24 25 25 26
12 13 13 13 12 11 11 12 12 13 13 13 13 13 13 14 14 14 14 14 14 14 14 14 14 15 16 17 18 18 19 20 21 21 22 22 23 24 24 26 26 27 28
12 13 13 13 12 12 11 12 13 14 14 14 14 14 14 14 14 14 14 14 14 14 15 15 16 16 17 18 19 20 21 21 22 22 23 23 24 24 25 26 27 28 28
13 13 14 13 13 13 13 12 13 14 14 14 15 15 15 14 14 14 14 14 15 15 16 17 17 18 19 20 20 21 21 21 22 23 24 24 25 26 27 27 28 29 30
13 14 14 13 13 13 14 14 14 14 15 15 15 15 15 14 14 14 15 15 16 16 17 18 18 19 20 20 21 22 22 23 24 24 25 26 27 27 28 29 29 29 30
14 15 14 14 14 15 15 15 15 15 15 15 15 16 15 15 15 15 16 16 16 17 17 18 19 20 21 21 22 23 24 25 25 26 27 28 28 29 29 30 30 30 31
16 16 16 16 16 16 16 16 17 17 17 16 16 16 16 16 16 16 16 17 17 18 18 19 20 21 21 22 23 24 25 26 26 27 28 29 29 30 31 31 31 31 31
17 17 17 17 17 17 17 17 18 18 17 17 17 17 17 17 17 17 17 18 19 19 20 21 21 21 22 23 24 24 25 26 28 28 29 29 30 31 32 32 32 32 33
19 18 18 18 18 18 18 18 18 18 17 17 18 18 19 19 19 19 19 20 20 21 21 22 22 23 23 24 25 26 27 28 29 29 30 30 31 32 33 33 33 33 34
20 19 19 20 20 20 20 19 19 19 19 19 19 20 20 20 20 21 22 22 22 22 22 23 23 24 24 25 26 28 29 30 30 31 31 32 32 33 33 34 34 34 35
22 22 22 22 22 22 21 21 21 21 21 21 21 21 21 21 21 22 22 23 23 23 23 24 24 25 26 27 28 29 30 31 32 32 32 33 33 33 34 35 35 35 35
23 23 23 23 23 23 22 22 22 22 22 23 23 23 23 22 22 22 23 24 24 24 25 25 26 26 27 28 29 30 31 32 33 33 33 34 34 35 35 36 36 35 35
24 24 23 24 23 23 23 23 23 24 24 24 24 24 24 23 23 24 24 24 25 25 26 26 27 27 28 29 30 31 32 33 33 33 34 35 35 35 36 36 36 35 35
26 25 24 24 24 24 24 24 24 24 25 25 25 25 24 24 24 24 24 25 25 26 26 27 28 29 30 31 31 32 33 33 34 34 35 35 36 36 36 36 36 35 35
26 26 26 26 26 25 25 25 25 26 26 25 25 25 25 25 25 26 26 26 26 27 27 28 29 30 31 32 33 33 34 34 35 35 36 36 36 37 36 36 36 35 35
27 27 28 28 27 27 26 26 27 27 27 27 27 26 27 27 27 27 27 27 27 28 28 30 31 32 32 33 34 34 35 36 36 36 37 37 37 37 36 36 36 35 35
28 28 28 28 29 29 29 28 28 28 29 29 29 28 28 28 28 28 28 28 28 29 30 32 33 33 33 34 34 35 36 37 37 38 37 37 37 37 37 36 36 35 34
29 29 29 29 30 30 30 30 30 30 30 29 29 29 29 29 29 29 29 30 30 31 31 32 33 34 33 33 35 36 36 37 37 37 37 37 37 37 36 36 35 35 35
29 29 29 29 30 30 30 30 30 30 29 29 30 30 30 30 29 29 29 30 31 31 31 32 33 34 34 35 36 37 37 37 37 37 37 36 36 36 36 35 35 35 34
30 29 29 29 30 30 30 30 30 29 29 30 30 30 29 29 30 29 29 29 30 31 31 32 33 34 35 36 36 37 37 37 37 37 36 36 36 36 35 35 35 34 33
29 29 29 30 30 30 30 29 29 29 29 29 29 29 30 30 30 29 28 29 30 31 32 33 34 35 35 36 36 37 37 37 36 36 36 36 36 36 35 35 34 34 33
Wind_Direction
353 351 348 349 349 344 338 334 333 336 334 327 328 329 323 316 310 308 311 311 309 308 304 302 302 300 301 303 302 299 298 299 301 296 291 290 288 288 288 286 285 286 288
349 346 345 345 345 342 338 339 337 334 334 333 331 329 327 322 316 310 307 306 309 309 308 305 303 301 302 304 301 298 298 298 300 299 297 294 291 291 290 290 290 289 288
342 339 336 337 338 340 339 337 334 335 332 327 324 321 317 314 312 312 312 309 310 311 309 308 304 301 302 304 303 301 301 300 300 300 298 299 296 293 293 293 291 289 289
340 343 340 336 334 332 333 331 328 328 329 326 320 315 310 309 309 309 308 308 308 309 310 309 308 308 307 306 307 305 304 303 302 303 300 300 300 297 297 294 292 290 290
336 339 338 336 334 334 330 328 328 328 327 325 321 315 309 305 305 306 306 305 306 306 308 310 309 309 309 310 310 312 310 307 306 306 304 304 302 299 299 298 296 294 293
334 336 334 333 333 330 328 326 326 326 325 323 318 313 309 304 303 303 302 301 304 304 306 308 308 308 310 311 312 312 311 310 309 308 308 306 305 302 299 298 296 295 296
330 332 331 329 329 330 327 326 321 318 321 321 319 315 312 306 304 304 300 302 305 306 306 307 309 311 312 312 311 310 309 310 309 309 309 309 306 303 300 299 298 295 294
324 328 328 328 325 326 327 324 320 321 321 320 321 318 316 313 308 306 306 305 307 308 307 307 309 311 313 313 313 313 311 311 309 309 309 309 307 305 305 303 302 300 298
317 319 322 323 323 323 323 322 321 320 319 318 319 319 317 315 313 311 309 307 307 307 307 307 309 312 314 314 314 313 313 313 313 312 312 311 309 308 307 306 304 303 301
309 313 316 319 321 322 320 318 319 321 319 317 318 317 315 314 313 312 311 309 308 308 308 307 309 312 314 314 315 316 316 316 314 313 312 311 310 310 309 308 307 305 303
305 311 313 316 318 319 317 316 315 316 317 315 315 316 313 311 312 311 311 311 312 313 313 314 313 313 313 314 316 317 317 317 316 315 314 313 311 310 309 309 307 306 305
299 305 308 309 312 315 315 314 313 313 313 312 312 313 312 309 310 310 310 310 312 313 314 314 314 315 315 316 317 318 318 318 318 316 315 314 313 312 310 309 308 307 306
296 301 303 305 308 311 311 311 311 311 310 308 308 309 310 309 309 309 309 309 310 311 312 313 313 314 315 316 317 318 318 318 318 317 316 315 314 313 312 310 308 308 307
294 297 300 303 305 308 310 311 311 311 311 309 306 306 306 306 306 306 307 308 309 309 310 312 313 313 313 315 317 317 318 318 318 317 317 316 316 316 315 313 311 310 309
290 292 296 301 303 303 305 306 306 306 308 307 307 306 306 306 304 303 305 306 305 306 307 309 311 312 312 313 315 316 317 317 317 317 317 317 317 316 316 314 312 311 310
286 289 293 298 299 300 301 301 301 302 303 304 304 304 303 302 302 302 302 303 303 304 305 308 309 310 311 313 314 315 316 317 317 317 316 316 317 316 316 315 313 312 311
283 287 290 294 297 297 298 299 299 299 299 301 302 304 304 301 301 302 302 302 301 302 304 306 307 309 310 311 312 313 314 315 316 316 316 316 316 316 316 315 314 313 312
282 285 287 290 293 294 294 296 299 298 297 298 300 301 302 302 302 301 301 301 300 301 302 304 306 308 309 310 311 313 314 315 315 315 315 315 315 315 315 315 314 313 313
279 283 286 288 290 292 292 294 297 297 297 297 298 298 298 299 300 299 300 301 300 300 301 303 305 307 308 309 310 312 313 314 314 314 314 315 315 315 315 315 315 314 313
278 282 285 287 288 290 291 293 295 296 296 295 296 296 295 297 298 298 298 299 300 299 300 302 304 305 307 308 309 311 312 313 314 314 314 314 314 314 314 314 314 314 313
279 281 284 286 286 287 288 291 292 294 295 295 294 292 293 295 296 297 297 298 298 299 300 301 302 303 304 306 308 310 312 313 313 313 313 313 313 313 314 314 314 313 313
279 280 282 284 284 285 287 289 291 293 294 293 292 292 293 293 294 294 294 295 296 296 298 300 302 303 304 306 308 310 311 312 313 313 312 312 312 312 312 313 312 312 312
279 280 282 284 284 285 286 288 290 291 291 291 291 293 292 291 291 290 290 292 293 295 298 301 302 303 304 306 308 309 310 311 312 312 312 312 312 312 312 312 312 311 312
282 282 283 283 285 286 287 288 288 289 289 290 291 292 291 290 289 289 290 290 291 294 297 299 301 303 304 305 307 309 310 310 310 311 312 312 312 311 311 312 312 311 311
281 283 283 284 286 287 288 288 288 287 288 290 290 290 291 291 290 289 288 289 292 296 299 301 303 304 305 306 306 307 309 310 310 310 310 310 311 310 311 311 311 310 311
282 284 284 285 286 287 288 288 288 289 289 290 290 289 290 290 290 288 290 291 294 297 300 301 302 303 304 305 306 307 309 310 309 309 310 310 310 310 310 310 310 310 310
Height
5910 5909 5907 5905 5904 5902 5900 5898 5897 5896 5894 5893 5892 5890 5888 5887 5886 5884 5883 5882 5880 5879 5878 5876 5875 5873 5871 5869 5867 5865 5864 5862 5861 5859 5857 5856 5854 5852 5850 5848 5846 5844 5842
5909 5908 5906 5904 5902 5901 5899 5897 5896 5894 5893 5891 5890 5888 5887 5885 5884 5883 5881 5880 5878 5877 5875 5873 5872 5870 5868 5867 5864 5862 5861 5859 5857 5855 5853 5851 5849 5847 5845 5843 5840 5838 5837
5908 5906 5904 5903 5901 5899 5897 5895 5894 5892 5891 5889 5888 5886 5885 5884 5882 5880 5879 5877 5876 5874 5872 5870 5869 5867 5865 5863 5861 5859 5857 5855 5853 5851 5848 5846 5844 5841 5839 5837 5835 5832 5830
5907 5905 5903 5901 5899 5897 5895 5894 5892 5890 5889 5887 5886 5884 5883 5881 5880 5878 5876 5874 5873 5871 5869 5867 5865 5864 5862 5860 5858 5856 5853 5851 5849 5846 5844 5841 5839 5836 5834 5831 5829 5826 5824
5906 5904 5902 5900 5897 5895 5893 5892 5890 5888 5886 5885 5883 5881 5880 5878 5877 5875 5873 5871 5869 5868 5866 5864 5862 5860 5859 5856 5854 5852 5849 5847 5844 5842 5839 5836 5834 5831 5829 5826 5823 5820 5817
5904 5902 5900 5898 5895 5893 5891 5889 5888 5886 5884 5882 5880 5878 5876 5875 5873 5871 5869 5867 5866 5864 5863 5861 5859 5857 5855 5853 5850 5848 5845 5843 5840 5837 5834 5831 5828 5826 5823 5819 5816 5813 5810
5902 5900 5898 5895 5893 5891 5889 5887 5885 5883 5881 5879 5877 5875 5873 5871 5869 5867 5865 5864 5862 5861 5859 5857 5855 5853 5851 5849 5846 5844 5841 5838 5835 5832 5829 5826 5823 5820 5816 5813 5809 5806 5803
5899 5897 5895 5893 5891 5888 5886 5885 5883 5881 5879 5876 5874 5872 5870 5867 5865 5863 5862 5860 5858 5857 5855 5853 5851 5849 5846 5844 5842 5839 5836 5833 5830 5827 5824 5820 5817 5813 5810 5806 5802 5799 5796
5896 5894 5892 5890 5888 5886 5884 5882 5880 5878 5876 5873 5871 5869 5867 5864 5862 5860 5858 5857 5855 5853 5851 5849 5847 5845 5842 5839 5836 5834 5831 5827 5824 5821 5817 5814 5810 5806 5803 5799 5795 5791 5787
5893 5891 5889 5887 5885 5883 5881 5879 5877 5875 5872 5870 5868 5866 5863 5861 5859 5857 5855 5853 5851 5850 5847 5845 5843 5840 5837 5834 5831 5828 5825 5822 5818 5815 5811 5807 5803 5799 5795 5791 5787 5783 5779
5889 5888 5886 5884 5882 5880 5878 5876 5874 5872 5869 5867 5865 5863 5860 5858 5856 5854 5852 5850 5848 5845 5843 5841 5838 5835 5832 5829 5826 5823 5819 5816 5812 5808 5804 5800 5796 5792 5788 5784 5780 5776 5772
5885 5884 5882 5881 5879 5876 5874 5872 5870 5868 5866 5863 5861 5859 5857 5854 5852 5850 5848 5846 5844 5841 5839 5836 5834 5831 5827 5824 5821 5817 5814 5810 5806 5802 5798 5794 5789 5785 5781 5776 5772 5768 5763
5881 5880 5878 5876 5875 5872 5870 5868 5866 5864 5861 5859 5857 5855 5853 5850 5848 5846 5844 5842 5839 5837 5834 5832 5829 5826 5822 5819 5816 5812 5808 5804 5800 5796 5791 5787 5782 5778 5773 5769 5764 5760 5755
5877 5875 5873 5872 5870 5868 5866 5864 5862 5859 5857 5855 5853 5851 5849 5846 5844 5842 5840 5837 5835 5832 5829 5827 5824 5820 5817 5814 5810 5806 5802 5798 5794 5789 5785 5780 5775 5770 5766 5761 5756 5751 5747
5871 5870 5869 5867 5865 5863 5861 5859 5857 5855 5853 5850 5848 5846 5844 5841 5839 5837 5834 5832 5829 5827 5824 5821 5818 5815 5811 5808 5804 5800 5796 5791 5787 5782 5778 5773 5768 5763 5758 5753 5748 5743 5739
5866 5864 5863 5861 5859 5858 5856 5854 5851 5850 5847 5845 5843 5841 5838 5836 5833 5831 5829 5826 5824 5821 5818 5815 5812 5809 5805 5801 5797 5793 5789 5784 5780 5775 5770 5766 5761 5756 5750 5745 5740 5735 5730
5859 5858 5857 5855 5853 5851 5850 5848 5846 5844 5841 5839 5837 5835 5832 5830 5827 5825 5822 5820 5817 5815 5812 5809 5806 5802 5798 5795 5791 5786 5782 5777 5773 5768 5763 5758 5753 5748 5742 5737 5732 5727 5722
5852 5851 5850 5849 5847 5845 5843 5842 5839 5837 5835 5833 5831 5828 5826 5823 5821 5818 5816 5813 5811 5808 5805 5802 5799 5795 5792 5788 5784 5779 5775 5770 5765 5760 5755 5750 5745 5740 5735 5729 5724 5719 5713
5845 5844 5843 5842 5840 5838 5836 5835 5833 5830 5828 5826 5824 5822 5819 5817 5814 5812 5809 5807 5804 5801 5798 5795 5792 5788 5784 5780 5776 5772 5767 5762 5757 5752 5747 5742 5737 5732 5726 5721 5716 5710 5705
5837 5836 5835 5834 5833 5831 5829 5827 5825 5823 5821 5819 5817 5815 5812 5810 5807 5805 5802 5799 5797 5794 5791 5788 5784 5781 5777 5773 5768 5764 5759 5754 5749 5744 5739 5734 5729 5724 5718 5713 5707 5702 5697
5829 5828 5827 5826 5825 5823 5821 5819 5817 5815 5813 5811 5809 5807 5804 5802 5800 5797 5794 5792 5789 5786 5783 5780 5776 5772 5768 5764 5760 5755 5751 5746 5741 5736 5731 5725 5720 5715 5710 5704 5699 5694 5689
5820 5819 5818 5817 5816 5815 5813 5811 5809 5807 5805 5803 5800 5798 5796 5794 5791 5789 5786 5784 5781 5778 5775 5771 5768 5764 5760 5756 5751 5747 5742 5737 5732 5727 5721 5716 5711 5706 5701 5696 5690 5685 5680
5811 5810 5809 5808 5807 5806 5804 5802 5800 5798 5796 5794 5792 5790 5787 5785 5783 5780 5778 5775 5772 5769 5766 5763 5759 5755 5751 5747 5742 5738 5733 5728 5723 5718 5713 5707 5702 5697 5692 5687 5682 5677 5672
5802 5801 5800 5799 5798 5797 5795 5794 5792 5790 5787 5785 5783 5781 5778 5776 5773 5771 5769 5766 5763 5760 5757 5753 5750 5746 5742 5737 5733 5728 5723 5718 5713 5708 5703 5698 5693 5688 5683 5678 5673 5668 5664
5793 5792 5791 5790 5789 5788 5786 5784 5783 5780 5778 5776 5774 5772 5769 5767 5764 5762 5759 5756 5754 5751 5747 5744 5740 5736 5732 5728 5723 5719 5714 5709 5704 5699 5694 5689 5684 5679 5674 5670 5665 5660 5655
5784 5783 5782 5781 5780 5778 5776 5775 5773 5771 5769 5767 5765 5763 5760 5757 5755 5752 5750 5747 5745 5742 5739 5735 5731 5727 5723 5718 5714 5709 5704 5699 5694 5690 5685 5680 5675 5670 5666 5661 5656 5651 5647